• In Spain
  • List of Countries
  • For 7 days
  • Water Temperature
  • Satellite Maps
  • Weather Map
  • Weather Widgets
  • user-avatar
    Login

    Hourly Weather Lezhe

    Today, 17 December, Sunday

    Time Temperature Precipitation Wind Pressure Humidity
    00:00 +9°C° 0.6 mm 1 mps 731 mmHg 88%
    01:00 +9°C° 0.6 mm 1 mps 732 mmHg 88%
    02:00 +8°C° 0.5 mm 1 mps 732 mmHg 88%
    03:00 +8°C° 0.5 mm 1 mps 732 mmHg 89%
    04:00 +8°C° 0.5 mm 1 mps 732 mmHg 90%
    05:00 +8°C° 0.5 mm 1 mps 732 mmHg 90%
    06:00 +6°C° 0.5 mm 2 mps 732 mmHg 91%
    07:00 +6°C° 0.5 mm 2 mps 732 mmHg 91%
    08:00 +7°C° 0.4 mm 2 mps 733 mmHg 89%
    09:00 +7°C° 0.4 mm 2 mps 733 mmHg 87%
    10:00 +7°C° 0.4 mm 2 mps 734 mmHg 85%
    11:00 +8°C° 0.5 mm 2 mps 734 mmHg 82%
    12:00 +8°C° 0.5 mm 2 mps 734 mmHg 80%
    13:00 +8°C° 0.5 mm 2 mps 734 mmHg 78%
    14:00 +8°C° 0.5 mm 2 mps 734 mmHg 81%
    15:00 +7°C° 0.5 mm 2 mps 734 mmHg 83%
    16:00 +6°C° 0.5 mm 2 mps 734 mmHg 86%
    17:00 +6°C° 0.6 mm 2 mps 735 mmHg 87%
    18:00 +5°C° 0.6 mm 2 mps 735 mmHg 87%
    19:00 +4°C° 0.6 mm 3 mps 736 mmHg 88%
    20:00 +4°C° 0.5 mm 3 mps 736 mmHg 87%
    21:00 +3°C° 0.5 mm 3 mps 736 mmHg 87%
    22:00 +3°C° 0.5 mm 4 mps 737 mmHg 86%
    23:00 +3°C° 0.6 mm 4 mps 737 mmHg 85%

    Tomorrow, 18 December, Monday

    Time Temperature Precipitation Wind Pressure Humidity
    00:00 +1°C° 0.6 mm 5 mps 737 mmHg 84%
    01:00 +1°C° 0.6 mm 5 mps 737 mmHg 83%
    02:00 +1°C° 0.8 mm 5 mps 737 mmHg 84%
    03:00 +1°C° 0.8 mm 5 mps 737 mmHg 85%
    04:00 0°C° 0.8 mm 5 mps 737 mmHg 86%
    05:00 0°C° 0.8 mm 5 mps 737 mmHg 86%
    06:00 0°C° 0.8 mm 5 mps 738 mmHg 86%
    07:00 0°C° 0.8 mm 5 mps 738 mmHg 85%
    08:00 0°C° 0.6 mm 4 mps 738 mmHg 86%
    09:00 +1°C° 0.6 mm 4 mps 738 mmHg 86%
    10:00 +1°C° 0.6 mm 4 mps 738 mmHg 86%
    11:00 +1°C° 0.4 mm 4 mps 738 mmHg 87%
    12:00 +1°C° 0.4 mm 4 mps 738 mmHg 87%
    13:00 +2°C° 0.4 mm 3 mps 738 mmHg 87%
    14:00 +2°C° 0.3 mm 3 mps 738 mmHg 87%
    15:00 +2°C° 0.3 mm 3 mps 738 mmHg 87%
    16:00 +1°C° 0.3 mm 3 mps 738 mmHg 88%
    17:00 +1°C° 0.2 mm 3 mps 738 mmHg 88%
    18:00 +1°C° 0.2 mm 3 mps 738 mmHg 88%
    19:00 +2°C° 0.2 mm 2 mps 739 mmHg 88%
    20:00 0°C° 0.1 mm 3 mps 739 mmHg 88%
    21:00 0°C° 0.1 mm 3 mps 739 mmHg 88%
    22:00 0°C° 0.1 mm 3 mps 740 mmHg 88%
    23:00 0°C° 0.1 mm 3 mps 740 mmHg 87%

    Day after tomorrow, 19 December, Tuesday

    Time Temperature Precipitation Wind Pressure Humidity
    00:00 -1°C° 0.1 mm 3 mps 740 mmHg 87%
    01:00 -1°C° 0.1 mm 3 mps 741 mmHg 87%
    02:00 -1°C° 0.1 mm 3 mps 741 mmHg 86%
    03:00 -1°C° 0.1 mm 3 mps 741 mmHg 86%
    04:00 -1°C° 0.1 mm 3 mps 741 mmHg 86%
    05:00 -1°C° 0.1 mm 3 mps 742 mmHg 86%
    06:00 -2°C° 0.1 mm 3 mps 742 mmHg 85%
    07:00 -2°C° 0.1 mm 3 mps 743 mmHg 85%
    08:00 -1°C° 0 mm 3 mps 743 mmHg 82%
    09:00 0°C° 0 mm 3 mps 743 mmHg 79%
    10:00 +1°C° 0 mm 3 mps 744 mmHg 76%
    11:00 +1°C° 0 mm 3 mps 744 mmHg 74%
    12:00 +2°C° 0 mm 3 mps 744 mmHg 73%
    13:00 +2°C° 0 mm 3 mps 744 mmHg 72%
    14:00 +1°C° 0 mm 3 mps 744 mmHg 74%
    15:00 +1°C° 0 mm 3 mps 744 mmHg 77%
    16:00 0°C° 0 mm 3 mps 744 mmHg 79%
    17:00 -1°C° 0 mm 3 mps 745 mmHg 81%
    18:00 -2°C° 0 mm 3 mps 745 mmHg 82%
    19:00 -2°C° 0 mm 3 mps 745 mmHg 83%
    20:00 -2°C° 0 mm 3 mps 746 mmHg 83%
    21:00 -4°C° 0 mm 3 mps 746 mmHg 83%
    22:00 -4°C° 0 mm 3 mps 746 mmHg 83%
    23:00 -4°C° 0 mm 3 mps 746 mmHg 82%

    20 December, Wednesday

    Time Temperature Precipitation Wind Pressure Humidity
    00:00 -4°C° 0 mm 3 mps 746 mmHg 82%
    01:00 -4°C° 0 mm 3 mps 746 mmHg 82%
    02:00 -4°C° 0 mm 3 mps 746 mmHg 81%
    03:00 -5°C° 0 mm 3 mps 745 mmHg 81%
    04:00 -5°C° 0 mm 3 mps 745 mmHg 81%
    05:00 -5°C° 0 mm 3 mps 745 mmHg 80%
    06:00 -4°C° 0 mm 2 mps 745 mmHg 80%
    07:00 -4°C° 0 mm 2 mps 746 mmHg 79%
    08:00 -3°C° 0 mm 2 mps 746 mmHg 76%
    09:00 -1°C° 0 mm 2 mps 746 mmHg 73%
    10:00 +1°C° 0 mm 2 mps 746 mmHg 69%
    11:00 +2°C° 0 mm 2 mps 745 mmHg 68%
    12:00 +3°C° 0 mm 2 mps 745 mmHg 66%
    13:00 +3°C° 0 mm 2 mps 745 mmHg 64%
    14:00 +2°C° 0 mm 2 mps 745 mmHg 68%
    15:00 +1°C° 0 mm 2 mps 745 mmHg 71%
    16:00 +1°C° 0 mm 2 mps 745 mmHg 75%
    17:00 -1°C° 0 mm 2 mps 745 mmHg 76%
    18:00 -2°C° 0 mm 2 mps 746 mmHg 78%
    19:00 -4°C° 0 mm 3 mps 746 mmHg 79%
    20:00 -4°C° 0 mm 3 mps 747 mmHg 78%
    21:00 -4°C° 0 mm 3 mps 747 mmHg 78%
    22:00 -5°C° 0 mm 3 mps 748 mmHg 77%
    23:00 -5°C° 0 mm 3 mps 748 mmHg 77%

    21 December, Thursday

    Time Temperature Precipitation Wind Pressure Humidity
    00:00 -5°C° 0 mm 3 mps 748 mmHg 76%
    01:00 -5°C° 0 mm 3 mps 748 mmHg 76%
    02:00 -5°C° 0 mm 3 mps 748 mmHg 75%
    03:00 -5°C° 0 mm 3 mps 748 mmHg 74%
    04:00 -5°C° 0 mm 3 mps 748 mmHg 73%
    05:00 -5°C° 0 mm 3 mps 748 mmHg 72%
    06:00 -4°C° 0 mm 2 mps 748 mmHg 71%
    07:00 -4°C° 0 mm 2 mps 749 mmHg 70%
    08:00 -3°C° 0 mm 2 mps 749 mmHg 66%
    09:00 -1°C° 0 mm 2 mps 749 mmHg 62%
    10:00 +2°C° 0 mm 2 mps 749 mmHg 58%
    11:00 +3°C° 0 mm 1 mps 748 mmHg 56%
    12:00 +4°C° 0 mm 1 mps 748 mmHg 54%
    13:00 +5°C° 0 mm 1 mps 747 mmHg 51%
    14:00 +4°C° 0 mm 1 mps 747 mmHg 56%
    15:00 +2°C° 0 mm 1 mps 747 mmHg 61%
    16:00 +1°C° 0 mm 1 mps 747 mmHg 66%
    17:00 +1°C° 0 mm 1 mps 748 mmHg 66%
    18:00 +1°C° 0 mm 1 mps 748 mmHg 65%
    19:00 0°C° 0 mm 1 mps 748 mmHg 65%
    20:00 0°C° 0 mm 1 mps 748 mmHg 64%
    21:00 +1°C° 0 mm 1 mps 748 mmHg 63%
    22:00 -1°C° 0 mm 2 mps 748 mmHg 62%
    23:00 -1°C° 0 mm 2 mps 748 mmHg 63%

    22 December, Friday

    Time Temperature Precipitation Wind Pressure Humidity
    00:00 -1°C° 0 mm 2 mps 747 mmHg 63%
    01:00 -1°C° 0 mm 2 mps 747 mmHg 63%
    02:00 -1°C° 0 mm 2 mps 747 mmHg 64%
    03:00 -1°C° 0 mm 2 mps 746 mmHg 65%
    04:00 -1°C° 0 mm 2 mps 746 mmHg 66%
    05:00 +1°C° 0 mm 2 mps 746 mmHg 67%
    06:00 +1°C° 0 mm 2 mps 746 mmHg 68%
    07:00 +1°C° 0 mm 2 mps 746 mmHg 70%
    08:00 +4°C° 0 mm 1 mps 745 mmHg 71%
    09:00 +5°C° 0 mm 1 mps 745 mmHg 71%
    10:00 +7°C° 0 mm 1 mps 745 mmHg 72%
    11:00 +7°C° 0 mm 1 mps 744 mmHg 73%
    12:00 +8°C° 0 mm 1 mps 744 mmHg 74%
    13:00 +8°C° 0 mm 1 mps 743 mmHg 75%
    14:00 +7°C° 0 mm 1 mps 743 mmHg 78%
    15:00 +6°C° 0 mm 1 mps 742 mmHg 80%
    16:00 +5°C° 0 mm 1 mps 742 mmHg 82%
    17:00 +5°C° 0.1 mm 1 mps 742 mmHg 82%
    18:00 +5°C° 0.1 mm 1 mps 741 mmHg 83%
    19:00 +5°C° 0.1 mm 1 mps 741 mmHg 83%
    20:00 +4°C° 0.4 mm 2 mps 741 mmHg 85%
    21:00 +4°C° 0.4 mm 2 mps 741 mmHg 87%
    22:00 +4°C° 0.4 mm 2 mps 741 mmHg 90%
    23:00 +4°C° 1.3 mm 2 mps 741 mmHg 90%
    Show more